User: anonymous   Login
Location: Unspecified
(0.0000°N, 0.0000°E)
Time: 13:21:28
(UTC+00:00)
Language:

GOSAT - Orbit

View from above orbital plane
View from above orbital plane
View from above satellite
View from above satellite

Ground track
Ground track

The orbit data is extracted from the following two-line orbital elements,

1 33492U 09002A   17024.09187140 -.00000028  00000-0  36457-5 0  9997
2 33492  98.1111 137.0470 0001397  69.8482 290.2850 14.67526602428697
Epoch (UTC): 24 January 2017 02:12:17
Eccentricity: 0.0001397
inclination: 98.1111°
perigee height: 668 km
apogee height: 670 km
right ascension of ascending node: 137.0470°
argument of perigee: 69.8482°
revolutions per day: 14.67526602
mean anomaly at epoch: 290.2850°
orbit number at epoch: 42869

The dashed part of the orbit path shows where the satellite is in the earth's shadow,  

DLR